This demonstration page uses our WeatherBlox Daily Observations layout. Learn more.

Left ArrowRight Arrow

39.92423, -83.80882

Hourly Observations for June 8, 2021

Temp ( °F °C ) Dew Point ( °F °C ) Humidity (%) Winds ( mph kmh ) Pressure ( in mb ) Visibility ( mi km ) Precip ( " mm )
12:56 am 00:56 Mostly Cloudy 72 22 N/A N/A S 7 11 30.06 1018 10 16 N/A
1:56 am 01:56 Mostly Clear 72 22 N/A N/A S 6 9 30.05 1018 10 16 N/A
2:56 am 02:56 Mostly Cloudy 70 21 N/A N/A S 5 7 30.04 1017 10 16 N/A
3:56 am 03:56 Clear 70 21 N/A N/A SSE 7 11 30.03 1017 10 16 N/A
4:56 am 04:56 Clear 70 21 N/A N/A S 5 7 30.04 1017 10 16 N/A
5:56 am 05:56 Clear 70 21 N/A N/A SSE 3 6 30.05 1018 10 16 N/A
6:56 am 06:56 Sunny 70 21 N/A N/A N N/A 30.07 1018 10 16 N/A
7:56 am 07:56 Mostly Sunny 72 22 N/A N/A SW 6 9 30.10 1019 10 16 N/A
8:56 am 08:56 Sunny 73 22.8 73 22.8 100 100 WSW 6 9 30.11 1020 10 16 N/A
9:56 am 09:56 Sunny 76 24.4 75 23.9 97 97 SW 6 9 30.11 1020 10 16 N/A
10:56 am 10:56 Mostly Cloudy 76 24.4 74 23.3 94 94 SSW 5 7 30.10 1019 10 16 N/A
11:38 am 11:38 Mostly Cloudy 79 26 73 23 84 84 SW 6 9 30.07 1018 10 16 N/A
11:51 am 11:51 Mostly Cloudy 79 26 73 23 84 84 SSW 8 13 30.08 1019 10 16 N/A
11:56 am 11:56 Mostly Cloudy 79 26.1 74 23.3 85 85 SSW 6 9 30.11 1020 10 16 N/A
12:56 pm 12:56 Partly Cloudy 80 26.7 71 21.7 74 74 SW 7 11 30.09 1019 10 16 N/A
1:56 pm 13:56 Mostly Sunny 82 27.8 71 21.7 69 69 SSW 8 13 30.07 1018 10 16 N/A
2:56 pm 14:56 Mostly Sunny 83 28.3 72 22.2 70 70 WSW 14 22 30.06 1018 10 16 N/A
3:56 pm 15:56 Partly Cloudy 82 27.8 72 22.2 72 72 SSW 10 17 30.06 1018 10 16 N/A
4:56 pm 16:56 Partly Cloudy 81 27.2 74 23.3 79 79 SW 9 15 30.05 1018 10 16 N/A
5:56 pm 17:56 Sunny 80 26.7 72 22.2 76 76 SW 14 22 30.04 1017 10 16 N/A
6:56 pm 18:56 Sunny 79 26.1 70 21.1 74 74 WSW 13 20 30.05 1018 10 16 N/A
7:56 pm 19:56 Sunny 76 24.4 72 22.2 88 88 SW 10 17 30.06 1018 10 16 N/A
8:56 pm 20:56 Partly Cloudy with Light Rain 74 23.3 74 23.3 100 100 WSW 5 7 30.06 1018 10 16 0.00 0.00
9:56 pm 21:56 Mostly Clear with Light Rain 72 22 N/A N/A N N/A 30.07 1018 10 16 0.00 0.00
10:56 pm 22:56 Mostly Clear 72 22 N/A N/A N N/A 30.08 1019 10 16 0.00 0.00
11:56 pm 23:56 Partly Cloudy 71 21.7 71 21.7 100 100 N N/A 30.09 1019 10 16 0.00 0.00

Powered by AerisWeather